23:24
Airports
History
Links
Donate
Help keep this website running!
PayPal
Bitcoin
This page is community maintained. The information is intended for PC simulator navigation or reference.
Always use approved charts for navigation.
ULAA
TALAGI
TALAGI (ULAA)
Arcangel, Arkhangel'skaya oblast, Russian Federation (163045)
(C)
Lat/Lng:64° 36' 0.99" N / 40° 42' 60" E
64.600275 / 40.716666
Elevation:62'ft / 19mMSL
ID / ICAO:ULAA
Runways:1
Longest:08-26
Concrete 2,495m / 8,184ft
Controlled:Yes
METAR23:00 GMT 2017-10-20
Altimeter: 29.94
Visibility: 6.2 statute miles
Wind: 5.8 knots (from 310°)
Temp: 0°c / 32°f
Humidity: %

METAR: ULAA 202300Z 31003MPS 9999 FEW020CB M00/M01 Q1014 R26/510155 NOSIG RMK QFE759/1012

(Powered by phpweather)
Airport Radio Frequencies
ARKHANGELSK ATIS: 126.67
Tower: 121.8
Approach: 122, 124
Nearby VORs <50NM
Nearby NDBs
Runway 08 / 26
Dimensions:2494.5 x 43.9m 8184' x 144'ft
Surface:Concrete
Edge Lights:High intensity
Runway 08 [A]Runway 26 [B]
Heading:096°TH 276°TH
Lat:
Lng:
64° 36' 5.63"N
40° 41' 26.63"E
64° 35' 56.35"N
40° 44' 33.36"E
ALS:MALSMALS
User Notes and Comments
64° 36' 0.99" N / 40° 42' 60" E
Distance To
Airport ID:
Nearby Airports
(C) BESOVETS 277.0 NM
ULPB SW 227°
4 Kuhmo 338.4 NM
EFKH W 264°
(U) LIEKSA NURMES 343.0 NM
EFLN WSW 257°
(U) Kuusamo 344.4 NM
EFKS ( WX ) WNW 286°
4 Suomussalmi 354.1 NM
EFSU W 272°
4 Pyhaselka 359.8 NM
EFPH WSW 245°
(C) Murmansk 361.2 NM
ULMM ( WX ) NW 323°
VFR Chart
Flight Planning at SkyVector.com